Flag for Canada Weather past 2 weeks in Chilliwack, British Columbia, Canada

Now
44 °F

Quite cool.


Feels Like: 44 °F
Forecast: 42 / 51 °F
Wind: 2 mph from North

Location: Agassiz

Current Time: Apr 1, 2015 at 2:37:44 AM

Latest Report: Apr 1, 2015 at 2:00 AM


Visibility: N/A

Pressure: 30.17 "Hg

Humidity: 94%

Dew point: 43 °F

Location of ChilliwackLocation

Historic Weather in Chilliwack — Graph

°F

Chilliwack temperature yesterday

Maximum temperature yesterday: 54 °F (at 6:00 PM)
Minimum temperature yesterday: 46 °F (at 6:00 AM)
Average temperature yesterday: 49 °F

Past Weeks' High & Low Weather Summary

 TemperatureHumidityPressure
High67 °F (Mar 26, 4:00 PM)100% (Mar 19, 9:00 PM)30.31 "Hg (Mar 19, 9:00 PM)
Low40 °F (Mar 24, 5:00 AM)46% (Mar 31, 5:00 PM)29.73 "Hg (Mar 31, 2:00 AM)
Average50 °F84%30.08 "Hg
* Reported Mar 17 2:00 AM — Apr 1 1:00 AM, Chilliwack, Weather by CustomWeather, © 2015

Note: Actual official high and low records may vary slightly from our data, if they occured in-between our weather recording intervals... More about our weather records

Advertising

Chilliwack weather history for previous 24 hours

 ConditionsComfort  
Time TempWeatherWind HumidityBarometerVisibility
1:00 AM
Wed, Apr 1
44 °FQuite cool.3 mph92%30.16 "HgN/A
12:00 AM46 °FCool.1 mph84%30.15 "HgN/A
11:00 PM
Tue, Mar 31
48 °FCool.3 mph70%30.13 "HgN/A
10:00 PM49 °FCool.3 mph66%30.12 "HgN/A
9:00 PM48 °FCool.2 mph68%30.11 "HgN/A
8:00 PM50 °FCool.3 mph61%30.08 "HgN/A
7:00 PM51 °FCool.8 mph61%30.07 "HgN/A
6:00 PM54 °FCool.9 mph48%30.07 "HgN/A
5:00 PM53 °FCool.9 mph46%30.06 "HgN/A
4:00 PM53 °FCool.8 mph48%30.06 "HgN/A
3:00 PM53 °FCool.3 mph61%30.06 "HgN/A
2:00 PM51 °FCool.6 mph65%30.06 "HgN/A
1:00 PM48 °FCool.7 mph71%30.06 "HgN/A
12:00 PM49 °FCool.6 mph69%30.03 "HgN/A
11:00 AM52 °FCool.10 mph63%30.00 "HgN/A
10:00 AM48 °FCool.7 mph82%29.98 "HgN/A
9:00 AM47 °FCool.2 mph86%29.96 "HgN/A
8:00 AM46 °FCool.2 mph89%29.95 "HgN/A
7:00 AM46 °FCool.5 mph88%29.94 "HgN/A
6:00 AM46 °FCool.3 mph91%29.91 "HgN/A
5:00 AM46 °FCool.7 mph86%29.89 "HgN/A
4:00 AM48 °FCool.8 mph90%29.84 "HgN/A
3:00 AM51 °FCool.8 mph89%29.76 "HgN/A
2:00 AM51 °FCool.1 mph97%29.73 "HgN/A
Weather by CustomWeather, © 2015

See weather overviewHow to use our weather pages